Location: ????
(33.1659°N, 35.6604°E)
Time: 04:49:38
(UTC+00:00)

USA 186 - Pass Details

Date: 20 September 2019
Orbit: 261 x 450 km, 96.9° (Epoch: 07 October)

Event Time Altitude Azimuth Distance (km) Brightness Sun altitude
Exits shadow 17:08:58 40° 30° (NNE) 670 2.6 -19.7°
Drops below altitude 10° 17:11:30 10° 360° (N) 1,590 4.8 -20.3°
Sets 17:13:35 0° 355° (N) 2,467 5.9 -20.7°
